SCP
0 0 0 0 0 0 0 0 0 0 0 0 0 0 0 0 0 0 0 0 0 0 0 0 0 1 1 1 1 1 1 1 1 1 1 1 0 0 0 0 0 0 0
0 0 0 0 0 0 0 0 0 0 0 0 0 0 0 0 0 0 0 0 0 0 0 0 0 1 1 1 1 1 1 1 1 1 1 1 0 0 0 0 0 0 0
0 0 0 0 0 0 0 0 0 0 0 0 0 0 0 0 0 0 0 0 0 0 0 0 0 0 1 1 1 1 1 1 1 1 1 1 1 0 0 0 0 0 0
0 0 0 0 0 0 0 0 0 0 0 0 0 0 0 0 0 0 0 0 0 0 0 0 0 0 0 1 1 2 2 1 1 1 1 1 1 0 0 0 0 0 0
0 0 0 0 0 0 0 0 0 0 0 0 0 0 0 0 0 0 0 0 0 0 0 0 0 0 0 0 1 1 1 1 1 1 1 1 1 1 1 1 0 0 0
0 0 0 0 0 0 0 0 0 0 0 0 0 0 0 0 0 0 0 0 0 0 0 0 0 0 0 0 0 1 1 1 1 1 1 1 1 1 1 1 1 1 1
0 0 0 0 0 0 0 0 0 0 0 0 0 0 0 0 0 0 0 0 0 0 0 0 0 0 0 0 0 0 1 1 1 1 2 1 1 1 1 1 1 1 1
0 0 0 0 0 0 0 0 0 0 0 0 0 0 0 0 0 0 0 0 0 0 0 0 0 0 0 0 0 0 0 0 1 1 1 1 1 1 1 1 1 1 1
0 0 0 0 0 0 0 0 0 0 0 0 0 0 0 0 0 0 0 0 0 0 0 0 0 0 0 0 0 0 0 0 0 0 0 0 0 0 1 1 1 1 1
0 0 0 0 0 0 0 0 0 0 0 0 0 0 0 0 0 0 0 0 0 0 0 0 0 0 0 0 0 0 0 0 0 0 0 0 0 0 0 0 1 1 1
0 0 0 0 0 0 0 0 0 0 0 0 0 0 0 0 0 0 0 0 0 0 0 0 0 0 0 0 0 0 0 0 0 0 0 0 0 0 0 0 0 0 0
0 0 0 0 0 0 0 0 0 0 0 0 0 0 0 0 0 0 0 0 0 0 0 0 0 0 0 0 0 0 0 0 0 0 0 0 0 0 0 0 0 0 0
0 0 0 0 0 0 0 0 0 0 0 0 0 0 0 0 0 0 0 0 0 0 0 0 0 0 0 0 0 0 0 0 0 0 0 0 0 0 0 0 0 0 0
0 0 0 0 0 0 0 0 0 0 0 0 0 0 0 0 0 0 0 0 0 0 0 0 0 0 0 0 0 0 0 0 0 0 0 0 0 0 0 0 0 0 0
0 0 0 0 0 0 0 0 0 0 0 0 0 0 0 0 0 0 0 0 0 0 0 0 0 0 0 0 0 0 0 0 0 0 0 0 0 0 0 0 0 0 0
0 0 0 0 0 0 0 0 0 0 0 0 0 0 0 0 0 0 0 0 0 0 0 0 0 0 0 0 0 0 0 0 0 0 0 0 0 0 0 0 0 0 0
0 0 0 0 0 0 0 0 0 0 0 0 0 0 0 0 0 0 0 0 0 0 0 0 0 0 0 0 0 0 0 0 0 0 0 0 0 0 0 0 0 0 1
0 0 0 0 0 0 0 0 0 0 0 0 0 0 0 0 0 0 0 0 0 0 0 0 0 0 0 0 0 0 0 0 0 0 0 0 0 0 0 0 0 1 1
0 0 0 0 0 0 0 0 0 0 0 0 0 0 0 0 0 0 0 0 0 0 0 0 0 0 0 0 0 0 0 0 0 0 0 0 0 0 0 0 0 1 0
0 0 0 0 0 0 0 0 0 0 0 0 0 0 0 0 0 0 0 0 0 0 0 0 0 0 0 0 0 0 0 0 0 0 0 0 0 0 0 0 0 0 0
0 0 0 0 0 0 0 0 0 0 0 0 0 0 0 0 0 0 0 0 0 0 0 0 0 0 0 0 0 0 0 0 0 0 0 0 0 0 0 0 0 0 0
0 0 0 0 0 0 0 0 0 0 0 0 0 0 0 0 0 0 0 0 0 0 0 0 0 0 0 0 0 0 0 0 0 0 0 0 0 0 0 0 0 0 0
0 0 0 0 0 0 0 0 0 0 0 0 0 0 0 0 0 0 0 0 0 0 0 0 0 0 0 0 0 0 0 0 0 0 0 0 0 0 0 0 0 0 0
0 0 0 0 0 0 0 0 0 0 0 0 0 0 0 0 0 0 0 0 0 0 0 0 0 0 0 0 0 0 0 0 0 0 0 0 0 0 0 0 0 0 0
0 0 0 0 0 0 0 0 0 0 0 0 0 0 0 0 0 0 0 0 0 0 0 0 0 0 0 0 0 0 0 0 0 0 0 0 0 0 0 0 0 0 0
0 0 0 0 0 0 0 0 0 0 0 0 0 0 0 0 0 0 0 0 0 0 0 0 0 0 0 0 0 0 0 0 0 0 0 0 0 0 0 0 0 0 0
Wind_Speed
1 1 1 1 2 2 2 2 2 2 2 2 2 2 2 2 2 2 3 8 9 8 7 7 6 7 7 6 6 6 6 7 7 7 7 7 7 8 8 8 8 8 8
1 1 1 1 1 1 1 1 2 1 1 1 2 2 2 2 2 2 2 4 8 9 8 7 7 8 8 8 7 7 7 7 8 8 8 8 8 8 8 8 8 8 8
2 2 1 0 0 1 1 1 2 2 1 1 1 1 1 1 1 2 2 2 3 7 9 8 8 9 9 9 8 8 8 8 8 8 8 8 9 9 8 8 9 9 8
1 1 1 1 0 1 1 1 1 2 2 1 1 1 1 1 1 1 1 2 2 3 5 8 9 10 10 10 9 9 9 8 8 9 9 9 10 10 9 9 9 9 9
1 1 1 1 1 1 0 0 1 1 1 2 2 1 1 1 1 1 1 2 2 2 2 5 8 9 10 11 11 10 10 10 9 9 10 10 10 10 10 9 9 10 10
1 1 1 1 1 1 1 0 0 1 0 1 2 2 2 2 1 1 1 1 1 2 2 3 3 5 9 10 11 11 11 10 10 10 11 11 11 11 10 10 10 10 10
1 1 1 1 2 2 2 1 0 0 0 1 1 2 2 2 1 2 1 1 1 2 2 2 2 2 4 9 11 11 11 10 10 10 11 11 12 11 11 11 11 11 11
1 1 2 2 2 2 2 2 1 0 0 0 1 1 3 2 1 2 1 1 2 2 2 3 2 2 3 3 7 11 11 11 11 11 11 12 12 12 11 12 12 13 13
1 1 2 2 2 2 2 3 2 2 1 1 0 1 1 3 3 2 2 2 1 2 2 2 3 3 3 3 4 8 10 11 11 12 11 12 12 12 12 12 13 14 14
1 1 1 1 1 1 2 2 2 2 2 1 1 1 1 1 2 3 2 2 2 3 3 3 3 3 3 3 4 8 10 10 11 12 12 12 13 13 13 13 14 14 14
1 1 1 1 2 1 2 2 1 2 2 2 2 1 1 2 2 3 5 3 3 2 3 3 3 3 3 3 3 6 9 9 10 11 11 12 13 13 13 13 14 14 15
1 1 1 1 1 2 2 2 2 1 2 2 2 2 2 2 2 3 4 4 4 3 3 3 3 3 3 2 4 8 9 9 10 11 11 12 12 13 13 14 14 15 15
1 2 1 1 1 1 2 1 1 1 2 2 2 2 2 3 2 2 3 4 5 4 3 3 3 2 3 2 3 7 7 9 11 11 12 12 13 13 13 14 14 15 15
2 2 1 1 2 2 1 1 1 2 1 2 2 2 2 2 2 2 3 3 4 4 3 4 2 2 2 2 4 7 5 10 11 12 12 13 13 13 13 13 14 15 15
1 1 1 1 1 1 1 1 1 2 2 2 2 3 3 2 2 3 2 2 3 4 5 3 2 2 2 2 6 4 4 9 12 13 13 13 13 13 13 13 14 14 14
1 1 1 1 1 1 1 1 1 1 1 2 2 3 3 2 2 2 3 3 3 4 5 3 3 3 3 4 7 5 5 11 12 12 12 12 13 13 13 14 14 14 15
1 1 1 1 1 1 1 1 2 1 2 2 2 3 4 3 3 3 3 3 3 4 6 5 3 3 4 5 5 4 4 5 6 11 12 13 13 13 13 14 14 14 15
1 1 1 1 1 1 1 1 2 2 3 3 3 3 4 3 4 3 3 4 4 4 5 7 5 4 4 4 4 5 5 5 5 10 12 12 13 13 13 14 14 15 16
1 1 1 2 2 2 2 2 2 3 3 4 4 4 4 4 5 4 4 4 4 4 4 5 6 4 4 4 4 5 5 4 5 7 10 11 12 13 13 14 14 15 15
1 1 2 2 2 2 3 3 3 3 4 4 4 4 5 5 5 5 4 4 4 4 4 5 6 5 4 4 3 4 5 3 5 5 7 8 11 13 13 14 14 15 15
1 2 2 2 3 3 3 3 3 3 4 4 4 5 5 6 7 6 4 4 4 4 4 4 5 5 5 4 4 3 5 5 5 4 4 5 5 5 6 10 13 14 15
2 2 2 3 3 3 5 6 4 4 4 5 5 5 5 5 6 8 8 8 6 5 5 5 5 6 6 5 4 4 4 5 5 2 3 6 4 5 5 5 11 15 15
2 2 3 3 4 5 7 7 7 5 4 4 5 4 4 4 4 4 6 8 7 8 8 6 7 7 6 5 4 5 5 5 6 4 4 6 3 6 5 7 14 15 15
2 2 3 4 4 6 7 7 6 4 4 4 4 4 5 5 4 5 4 5 5 5 6 5 6 7 6 5 5 5 6 6 6 5 4 6 4 5 6 6 12 14 15
2 2 3 3 4 5 6 6 5 3 3 5 5 4 4 5 7 8 5 5 6 5 6 7 8 9 10 10 6 3 4 4 6 5 2 4 5 6 6 5 7 12 14
2 2 3 3 4 4 6 6 5 2 4 4 4 4 5 7 8 8 4 4 6 6 4 5 6 7 6 6 8 5 4 4 5 5 2 3 4 4 6 4 4 5 6
Wind_Direction
114 86 62 52 44 44 42 28 27 36 36 35 36 35 26 20 17 13 356 12 13 7 3 360 359 359 357 353 349 347 340 344 347 342 335 331 329 329 328 328 319 315 316
148 139 101 66 50 51 45 45 29 18 24 33 29 22 17 10 12 14 6 2 9 6 359 354 354 353 347 345 341 342 340 336 338 338 332 328 325 323 321 321 319 319 315
168 167 156 138 43 69 70 66 47 32 26 31 17 357 7 6 4 9 3 357 355 2 1 357 351 348 343 339 332 333 330 328 326 324 327 327 322 317 316 319 318 315 315
187 177 172 183 177 114 93 82 61 38 9 339 317 304 312 327 338 351 1 358 355 354 353 356 354 350 343 338 332 329 326 322 320 322 319 318 319 315 313 313 314 316 316
179 200 201 201 170 143 127 115 41 32 4 344 308 282 284 271 279 309 329 346 346 351 353 351 351 347 343 339 334 327 324 321 319 320 318 313 310 312 309 308 308 309 311
188 182 205 197 181 157 158 118 28 13 285 327 313 296 275 257 252 234 263 311 322 339 347 340 339 337 340 337 331 324 324 323 321 322 324 320 313 309 313 312 310 311 313
206 189 184 192 186 190 197 181 154 23 332 8 345 317 291 248 253 240 246 265 295 313 323 326 326 326 325 329 326 323 324 324 325 327 326 326 321 317 314 315 311 307 305
225 195 187 190 194 192 197 192 171 171 256 69 49 326 313 306 280 257 249 242 263 308 309 312 311 315 315 314 316 322 320 322 321 322 322 320 318 316 314 313 311 308 303
214 202 192 190 194 189 207 210 197 191 217 243 151 190 245 276 308 284 251 252 266 285 285 291 289 295 302 306 306 316 317 316 316 316 315 314 316 316 314 312 311 309 308
247 225 200 176 189 199 207 219 203 205 197 228 238 238 244 225 257 301 285 256 267 268 271 284 283 286 287 290 296 310 314 316 318 317 315 314 313 313 313 312 310 309 307
257 237 218 190 192 201 213 207 204 205 208 212 211 212 244 250 223 243 280 293 294 265 262 264 261 269 278 281 289 302 309 314 315 316 315 314 313 311 310 311 311 310 308
259 265 242 202 202 202 209 207 204 200 218 216 223 215 219 231 228 228 257 282 289 286 278 256 254 263 267 274 290 303 306 311 314 314 314 314 314 312 309 308 308 307 306
251 265 256 227 209 217 220 203 202 217 213 216 228 237 239 252 257 246 253 275 286 292 282 269 251 258 266 281 288 300 300 306 308 308 310 309 310 310 308 307 305 303 302
240 237 230 226 215 210 218 198 214 230 228 231 245 250 252 257 258 255 249 263 285 286 274 274 281 251 275 285 290 301 298 299 301 304 305 306 305 305 304 303 302 300 300
243 230 219 224 224 214 214 200 223 238 240 241 250 255 253 259 259 261 258 245 243 272 280 277 278 283 287 288 293 296 290 292 297 300 301 302 302 303 302 302 302 301 301
239 234 235 238 245 231 216 217 244 244 238 252 247 251 258 259 261 263 257 255 248 253 269 269 272 287 291 292 294 294 287 293 293 296 297 299 301 303 304 303 302 301 301
243 245 243 240 258 266 248 239 256 265 258 268 266 260 266 263 256 256 254 254 254 251 263 280 276 286 280 283 294 291 284 282 285 289 293 296 300 303 303 304 305 304 303
257 252 253 255 257 258 255 250 262 272 266 266 268 267 270 267 259 257 251 253 255 252 257 278 289 288 277 278 286 288 289 288 287 289 292 295 298 300 303 305 305 305 304
271 277 250 248 255 257 257 257 255 267 269 267 266 267 268 266 267 265 259 260 262 263 258 269 284 285 281 283 292 291 286 285 289 292 293 294 295 298 301 302 303 304 305
261 260 260 260 263 260 257 261 265 271 271 274 272 269 268 261 262 266 261 260 263 266 267 268 278 282 281 280 278 291 299 293 292 295 292 292 293 296 297 298 300 302 303
264 265 267 271 270 263 261 267 267 269 271 276 276 272 273 268 265 265 263 257 252 257 265 269 276 283 283 288 287 291 292 302 290 277 291 286 289 289 294 295 296 298 300
270 260 256 262 268 269 276 274 275 272 271 272 277 278 277 273 278 281 280 276 266 260 263 267 274 274 280 283 287 287 291 298 293 279 285 283 274 279 282 280 291 295 299
275 270 269 268 271 274 280 283 280 275 272 271 275 282 285 285 280 281 286 289 285 278 267 261 268 269 273 275 278 282 277 277 276 293 298 282 278 279 282 285 295 294 296
272 272 274 267 270 275 283 288 292 276 270 271 272 273 279 287 285 286 285 284 282 283 279 269 265 270 273 273 258 264 272 278 278 273 272 277 282 280 284 280 290 293 296
278 275 277 273 276 284 288 291 296 276 273 276 273 270 272 279 289 292 288 287 293 293 297 291 286 289 292 293 292 290 284 285 287 282 260 272 286 295 286 275 283 295 299
276 285 288 282 278 283 292 294 296 278 280 282 282 278 275 282 291 292 281 281 289 295 303 307 299 297 297 295 292 274 264 265 278 283 265 271 283 310 302 282 286 297 299